Starlink 6350

operational
NORAD ID: 57226 Int'l Des: 2023-094 Owner: SPXS Country: US Constellation: starlink
LEOCIRCULAR

Starlink 6350について

説明を読み込み中...

リアルタイム位置

3D地球を読み込み中...

次回通過

高度履歴

Altitude vs Time

uPlot chart will show altitude changes over time

軌道要素

1 57226U 23094J 25258.34983017 .00000011 00000-0 15852-4 0 9994
2 57226 43.0032 263.1345 0001254 271.1679 88.9020 15.02536227120749
Epoch: Sep 15, 2025 • Age: 26 hours

現在のステータス

高度 563.0 km
速度 7.59 km/s
衛星直下点 42.92°N, 170.24°W
打ち上げ日 Jul 7, 2023
運用期間 2.1 years
タイプ internet

技術仕様

分類 Payload
質量 305.00 kg
乾燥質量 290.00 kg
総質量 305.00 kg
長さ 0.20 m
直径 2.80 m
スパン 9.00 m
形状 Box + pan
製造者 SPXS
バスタイプ Starlink
フェーズステータス In Orbit
所有者/国 SPXS/US

大規模コンステレーション

Loading constellations...